FW7319 Weather Reports


Display with metric or nautical units.
time (UTC)temp
F
wind
direction
speed
MPH
gust
MPH
rain 1hr
in
rain 24hr
in
rain mn
in
humidity
%
barometer
mb
20260507064604 50 245 0.0 1.0 0.00 0.00 0.00 74 1015.8
20260507063142 50 246 0.0 1.0 0.00 0.00 0.00 75 1015.8
20260507061547 48 202 0.0 4.0 0.00 0.00 0.00 78 1015.5
20260507060057 47 223 0.0 3.0 0.00 0.00 0.00 82 1015.6
20260507054613 45 225 0.0 2.0 0.00 0.00 0.00 86 1015.4
20260507053140 44 219 0.0 1.0 0.00 0.00 0.00 91 1015.5
20260507051607 41 219 0.0 1.0 0.00 0.00 0.00 91 1015.4
20260507050152 39 218 0.0 0.0 0.00 0.00 0.00 90 1015.2
20260507044618 38 218 0.0 0.0 0.00 0.00 0.00 88 1015.1
20260507043009 37 218 0.0 0.0 0.00 0.00 0.00 88 1014.8
20260507041508 37 218 0.0 0.0 0.00 0.00 0.00 87 1014.6
20260507040050 36 218 0.0 0.0 0.00 0.00 0.00 86 1014.5
20260507034518 37 218 0.0 0.0 0.00 0.00 0.00 86 1014.5
20260507033108 37 218 0.0 0.0 0.00 0.00 0.00 86 1014.5
20260507031601 37 218 0.0 0.0 0.00 0.00 0.00 85 1014.5
20260507030154 37 218 0.0 0.0 0.00 0.00 0.00 85 1014.5
20260507024633 38 218 0.0 0.0 0.00 0.00 0.00 85 1014.3
20260507023051 38 218 0.0 0.0 0.00 0.00 0.00 84 1014.2
20260507021549 38 218 0.0 0.0 0.00 0.00 0.00 83 1014.1
20260507020109 39 218 0.0 0.0 0.00 0.00 0.00 83 1014.1
20260507014604 39 218 0.0 0.0 0.00 0.00 0.00 82 1014.1
20260507013106 40 218 0.0 0.0 0.00 0.00 0.00 82 1014.0
20260507011550 41 218 0.0 0.0 0.00 0.00 0.00 82 1014.0
20260507010104 41 218 0.0 0.0 0.00 0.00 0.00 81 1014.1
20260507004548 42 218 0.0 0.0 0.00 0.00 0.00 81 1014.1
20260507003106 43 218 0.0 1.0 0.00 0.00 0.00 81 1014.0
20260507001553 43 218 0.0 1.0 0.00 0.00 0.00 81 1014.0
20260507000109 43 224 0.0 2.0 0.00 0.00 0.00 81 1014.0
20260506234614 43 200 0.0 3.0 0.00 0.00 0.00 80 1013.7
20260506233154 43 192 0.0 1.0 0.00 0.00 0.00 78 1013.8
20260506231517 43 229 0.0 1.0 0.00 0.00 0.00 77 1013.7
20260506230151 43 212 0.0 2.0 0.00 0.00 0.00 77 1013.7
20260506224608 43 235 0.0 1.0 0.00 0.00 0.00 76 1013.7
20260506223147 43 165 0.0 1.0 0.00 0.00 0.00 76 1013.6
20260506221607 44 165 0.0 1.0 0.00 0.00 0.00 75 1013.5
20260506220113 44 161 0.0 1.0 0.00 0.00 0.00 73 1013.4
20260506214604 45 161 0.0 1.0 0.00 0.00 0.00 73 1013.5
20260506213001 45 153 0.0 1.0 0.00 0.00 0.00 73 1013.3
20260506211633 45 250 0.0 0.0 0.00 0.00 0.00 71 1013.3
20260506210007 45 250 0.0 0.0 0.00 0.00 0.00 71 1013.2
20260506204503 46 250 0.0 1.0 0.00 0.00 0.00 69 1013.1
20260506203105 46 250 0.0 2.0 0.00 0.00 0.00 68 1013.0
20260506201600 47 264 0.0 1.0 0.00 0.00 0.00 66 1012.9
20260506200104 47 265 0.0 1.0 0.00 0.00 0.00 66 1012.9
20260506194628 47 265 0.0 1.0 0.00 0.00 0.00 66 1012.7
20260506193112 47 328 0.0 1.0 0.00 0.00 0.00 67 1012.6
20260506191612 48 64 0.0 1.0 0.00 0.00 0.00 69 1012.5
20260506190153 49 64 0.0 0.0 0.00 0.00 0.00 69 1012.3
20260506184618 50 64 0.0 0.0 0.00 0.00 0.00 68 1012.2
20260506183026 51 64 0.0 0.0 0.00 0.00 0.00 65 1012.1
20260506181548 51 60 0.0 1.0 0.00 0.00 0.00 64 1012.0
20260506174602 52 349 0.0 4.0 0.00 0.00 0.00 64 1011.7
20260506173152 52 40 1.0 4.0 0.00 0.00 0.00 64 1011.7
20260506171627 52 12 2.0 5.0 0.00 0.00 0.00 62 1011.7
20260506170112 52 360 1.0 5.0 0.00 0.00 0.00 61 1011.6
20260506164555 53 360 0.0 3.0 0.00 0.00 0.00 60 1011.5
20260506163142 53 355 1.0 4.0 0.00 0.00 0.00 58 1011.5
20260506161601 53 5 1.0 4.0 0.00 0.00 0.00 59 1011.4
20260506160119 53 19 2.0 10.0 0.00 0.00 0.00 61 1011.4
20260506154607 53 9 2.0 6.0 0.00 0.00 0.00 60 1011.4
20260506153152 53 360 3.0 8.0 0.00 0.00 0.00 59 1011.4
20260506151621 53 15 3.0 10.0 0.00 0.00 0.00 61 1011.3
20260506150050 54 19 1.0 9.0 0.00 0.00 0.00 60 1011.3
20260506144514 54 23 3.0 8.0 0.00 0.00 0.00 58 1011.3
20260506143112 54 15 3.0 7.0 0.00 0.00 0.00 59 1011.3
20260506141606 54 15 2.0 9.0 0.00 0.00 0.00 57 1011.4
20260506140114 55 349 2.0 9.0 0.00 0.00 0.00 58 1011.3
20260506134611 55 360 2.0 8.0 0.00 0.00 0.00 55 1011.3
20260506133002 54 51 3.0 11.0 0.00 0.00 0.00 53 1011.2
20260506131543 55 360 4.0 9.0 0.00 0.00 0.00 53 1011.2
20260506130104 55 5 3.0 10.0 0.00 0.00 0.00 53 1011.1
20260506124600 54 12 4.0 11.0 0.00 0.00 0.00 54 1011.3
20260506123151 54 5 2.0 9.0 0.00 0.00 0.00 58 1011.2
20260506121611 54 5 3.0 10.0 0.00 0.00 0.00 55 1011.3
20260506120153 55 39 2.0 10.0 0.00 0.00 0.00 55 1011.3
20260506114614 54 350 4.0 11.0 0.00 0.00 0.00 58 1011.1
20260506113044 54 17 3.0 10.0 0.00 0.00 0.00 58 1011.2
20260506111541 54 29 5.0 10.0 0.00 0.00 0.00 58 1011.2
20260506110100 54 42 4.0 9.0 0.00 0.00 0.00 58 1011.3
20260506104609 55 31 3.0 8.0 0.00 0.00 0.00 57 1011.2
20260506101610 55 11 2.0 8.0 0.00 0.00 0.00 60 1011.4
20260506100041 54 28 2.0 8.0 0.00 0.00 0.00 59 1011.5
20260506094627 53 15 2.0 6.0 0.00 0.00 0.00 61 1011.5
20260506093042 53 20 1.0 8.0 0.00 0.00 0.00 61 1011.5
20260506091542 53 11 3.0 9.0 0.00 0.00 0.00 59 1011.5
20260506090058 53 19 3.0 6.0 0.00 0.00 0.00 59 1011.5
20260506084604 52 5 1.0 4.0 0.00 0.00 0.00 58 1011.2
20260506083145 52 30 2.0 6.0 0.00 0.00 0.00 57 1011.3
20260506081611 52 5 1.0 4.0 0.00 0.00 0.00 58 1011.3
20260506073103 51 14 1.0 4.0 0.00 0.00 0.00 59 1011.1
20260506071559 51 5 0.0 4.0 0.00 0.00 0.00 59 1011.2
20260506070107 50 360 1.0 4.0 0.00 0.00 0.00 60 1011.1